Location: Bazugues
(43.4465°N, 0.3432°E)
Time: 23:29:22
(UTC+00:00)

Cosmos 2251 Rocket - Visible Passes

Search period start: 18 April 2026 00:00
Search period end: 28 April 2026 00:00
Orbit: 761 x 787 km, 74.0° (Epoch: 18 April)

Date Brightness Start Highest point End Pass type
(mag) Time Alt. Az. Time Alt. Az. Time Alt. Az.
18 Apr 5.9 00:35:19 10° NW 00:36:25 15° NW 00:36:25 15° NW visible
18 Apr 5.1 22:17:48 10° N 22:21:24 26° NE 22:21:24 26° NE visible
18 Apr 5.5 23:59:38 10° NNW 00:01:47 23° NW 00:01:47 23° NW visible
19 Apr 5.4 21:43:08 10° N 21:46:44 18° NE 21:46:48 18° NE visible
19 Apr 5.0 23:24:11 10° NNW 23:27:11 34° NNW 23:27:11 34° NNW visible
20 Apr 5.8 21:09:04 10° NNE 21:11:04 12° NE 21:12:12 11° ENE visible
20 Apr 4.5 22:48:54 10° NNW 22:52:35 44° N 22:52:35 44° N visible
21 Apr 6.2 00:32:54 10° WNW 00:32:58 10° WNW 00:32:58 10° WNW visible
21 Apr 4.4 22:13:47 10° N 22:18:00 42° NE 22:18:00 42° NE visible
21 Apr 5.7 23:56:36 10° NW 23:58:24 18° WNW 23:58:24 18° WNW visible
22 Apr 4.7 21:38:50 10° N 21:43:27 30° ENE 21:43:27 30° ENE visible
22 Apr 5.1 23:20:50 10° NW 23:23:50 29° WNW 23:23:50 29° WNW visible
23 Apr 5.2 21:04:04 10° N 21:07:57 20° NE 21:08:55 19° ENE visible
23 Apr 4.3 22:45:20 10° NNW 22:49:18 47° NW 22:49:18 47° NW visible
24 Apr 5.6 20:29:46 10° NNE 20:32:18 13° NE 20:34:24 11° ENE visible
24 Apr 3.7 22:10:01 10° NNW 22:14:47 70° N 22:14:47 70° N visible
24 Apr 6.0 23:54:28 10° WNW 23:55:11 11° WNW 23:55:11 11° WNW visible
25 Apr 3.8 21:34:51 10° N 21:40:04 51° ENE 21:40:18 51° ENE visible
25 Apr 5.5 23:17:54 10° NW 23:20:41 20° W 23:20:41 20° W visible
26 Apr 4.5 20:59:51 10° N 21:04:40 33° ENE 21:05:50 30° E visible
26 Apr 4.8 22:42:02 10° NW 22:46:13 33° W 22:46:13 33° W visible
27 Apr 5.1 20:25:02 10° N 20:29:09 22° NE 20:31:23 17° E visible
27 Apr 3.9 22:06:29 10° NNW 22:11:43 56° WSW 22:11:47 56° WSW visible
